Location: Olmeneta
(45.2333°N, 10.0167°E)
Time: 06:12:39
(UTC+00:00)

YAOGAN 1 - Pass Details

Date: 03 March 2021
Orbit: 618 x 620 km, 97.9° (Epoch: 10 April)

Event Time Altitude Azimuth Distance (km) Brightness Sun altitude
Rises 17:36:52 0° 153° (SSE) 2,885 5.7 -5.5°
Reaches altitude 10° 17:39:04 10° 148° (SSE) 1,984 4.9 -5.9°
Maximum altitude 17:43:16 53° 72° (ENE) 770 2.7 -6.7°
Drops below altitude 10° 17:47:30 10° 356° (N) 1,998 5.2 -7.4°
Sets 17:49:44 0° 352° (N) 2,909 6.1 -7.8°
